Location: Praha
(50.0830°N, 14.4670°E)
Time: 10:39:35
(UTC+02:00)

ISS - Pass Details

Date: 30 June 2021
Orbit: 417 x 422 km, 51.6° (Epoch: 16 June)

Event Time Altitude Azimuth Distance (km) Brightness Sun altitude
Exits shadow 03:29:24 10° 176° (S) 1,495 -1.4 -10.1°
Maximum altitude 03:31:26 15° 139° (SE) 1,221 -1.6 -10.0°
Drops below altitude 10° 03:33:28 10° 101° (ESE) 1,500 -0.6 -9.8°
Sets 03:36:11 0° 78° (ENE) 2,367 0.8 -9.5°
